Location: Newark
(41.7772°N, 74.7403°W)
Time: 18:38:44
(UTC+00:00)

SR - All Passes

Search period start: 06 June 2020 00:00
Search period end: 16 June 2020 00:00
Orbit: 582 x 874 km, 66.7° (Epoch: 05 June)

Date Brightness Start Highest point End Pass type
(mag) Time Alt. Az. Time Alt. Az. Time Alt. Az.
06 Jun - 02:23:29 10° N 02:26:48 21° NE 02:30:02 10° E visible
06 Jun - 04:04:57 10° NW 04:08:59 41° WSW 04:12:58 10° S visible
06 Jun - 16:54:57 10° SE 16:57:50 15° ESE 17:00:36 10° ENE daylight
06 Jun - 18:34:05 10° SW 18:39:24 73° WNW 18:44:18 10° NNE daylight
06 Jun - 20:19:58 10° WNW 20:22:12 13° NW 20:24:22 10° NNW daylight
07 Jun - 01:35:09 10° NNE 01:36:38 11° NE 01:38:07 10° ENE visible
07 Jun - 03:15:05 10° NNW 03:19:24 84° ENE 03:23:38 10° SSE visible
07 Jun - 17:44:30 10° SSW 17:49:45 57° ESE 17:54:34 10° NE daylight
07 Jun - 19:28:04 10° W 19:32:03 22° NW 19:35:50 10° N daylight
08 Jun - 02:25:36 10° NNW 02:29:38 38° NE 02:33:36 10° ESE visible
08 Jun - 04:08:15 10° WNW 04:11:21 20° WSW 04:14:27 10° SSW visible
08 Jun - 16:55:43 10° SSE 17:00:12 28° ESE 17:04:25 10° NE daylight
08 Jun - 18:37:12 10° WSW 18:42:07 40° NW 18:46:41 10° NNE daylight
09 Jun - 01:36:29 10° N 01:39:41 20° NE 01:42:48 10° E visible
09 Jun - 03:17:50 10° NW 03:21:55 45° WSW 03:25:57 10° S visible
09 Jun - 16:08:15 10° SE 16:10:48 14° ESE 16:13:17 10° ENE daylight
09 Jun - 17:47:02 10° SW 17:52:21 78° WNW 17:57:14 10° NNE daylight
09 Jun - 19:32:41 10° WNW 19:35:05 13° NW 19:37:26 10° NNW daylight
10 Jun - 00:48:23 10° NNE 00:49:30 11° NE 00:50:37 10° NE daylight
10 Jun - 02:28:01 10° NNW 02:32:19 78° ENE 02:36:33 10° SSE visible
10 Jun - 16:57:32 10° S 17:02:42 53° ESE 17:07:27 10° NE daylight
10 Jun - 18:40:54 10° W 18:44:58 23° NW 18:48:49 10° N daylight
11 Jun - 01:38:34 10° NNW 01:42:32 35° NE 01:46:27 10° ESE visible
11 Jun - 03:21:03 10° WNW 03:24:18 21° WSW 03:27:32 10° SSW visible
11 Jun - 16:08:49 10° SSE 16:13:10 26° ESE 16:17:15 10° NE daylight
11 Jun - 17:50:06 10° SW 17:55:03 42° NW 17:59:38 10° NNE daylight
12 Jun - 00:49:30 10° N 00:52:34 19° NE 00:55:34 10° E daylight
12 Jun - 02:30:44 10° NW 02:34:51 48° WSW 02:38:56 10° S visible
12 Jun - 15:21:38 10° SE 15:23:46 13° ESE 15:25:52 10° E daylight
12 Jun - 17:00:00 10° SSW 17:05:17 83° WNW 17:10:09 10° NNE daylight
12 Jun - 18:45:24 10° WNW 18:47:58 14° NW 18:50:28 10° N daylight
13 Jun - 00:01:52 10° NNE 00:02:22 10° NE 00:02:52 10° NE daylight
13 Jun - 01:40:56 10° NNW 01:45:14 72° ENE 01:49:28 10° SE visible
13 Jun - 16:10:33 10° S 16:15:38 49° ESE 16:20:21 10° NE daylight
13 Jun - 17:53:44 10° WSW 17:57:52 24° NW 18:01:46 10° N daylight
14 Jun - 00:51:32 10° NNW 00:55:26 33° NE 00:59:17 10° ESE daylight
14 Jun - 02:33:52 10° WNW 02:37:15 23° WSW 02:40:36 10° SSW visible
14 Jun - 15:21:56 10° SSE 15:26:07 24° ESE 15:30:04 10° ENE daylight
14 Jun - 17:02:59 10° SW 17:07:57 44° NW 17:12:34 10° NNE daylight
15 Jun - 00:02:31 10° N 00:05:27 17° NE 00:08:19 10° E daylight
15 Jun - 01:43:37 10° NW 01:47:46 53° WSW 01:51:54 10° SSE visible
15 Jun - 14:35:06 10° SE 14:36:45 11° ESE 14:38:22 10° E daylight
15 Jun - 16:12:57 10° SSW 16:18:12 88° WNW 16:23:03 10° NNE daylight
15 Jun - 17:58:08 10° WNW 18:00:51 14° NW 18:03:28 10° N daylight
